Weather History for Pensacola NAS, FL

Change the Weather History Date:

Monday, December 30, 2013

  Actual Average Record
Temperature  
Mean Temperature 47 °F -  
Max Temperature 57 °F 58 °F 71 °F (1996)
Min Temperature 37 °F 39 °F 26 °F (2000)
Degree Days  
Heating Degree Days 18    
Moisture  
Dew Point 43 °F    
Average Humidity 90    
Maximum Humidity 100    
Minimum Humidity 62    
Precipitation  
Precipitation 0.00 in - - ()
Sea Level Pressure  
Sea Level Pressure 30.17 in    
Wind  
Wind Speed 1 mph (NNE)    
Max Wind Speed 7 mph    
Max Gust Speed -    
Visibility 8 miles    
Events Rain    
Averages and records for this station are not official NWS values.
T = Trace of Precipitation, MM = Missing Value Source: NWS Daily Summary

Daily Weather History Graph

Daily Weather History Graph

Search for Another Location

Airport:

Trip Planner

Search our weather history database for the weather conditions in past years. The results will help you decide how hot, cold, wet, or windy it might be!

Date:

Astronomy

Dec. 30, 2013 Rise Set
Actual Time 6:45 AM CST 4:58 PM CST
Civil Twilight 6:19 AM CST 5:24 PM CST
Nautical Twilight 5:49 AM CST 5:54 PM CST
Astronomical Twilight 5:19 AM CST 6:24 PM CST
Moon 4:38 AM CST (12/30) 3:28 PM CST (12/30)
Length of Visible Light 11h 05m
Length of Day
10h 13m
Waning Crescent, 4% of the Moon is Illuminated
Dec 30
Waning Crescent
Jan 1
New
Jan 7
First Quarter
Jan 15
Full
Jan 23
Last Quarter

Hourly Weather History & Observations

Time (CST) Temp. Windchill Dew Point Humidity Pressure Visibility Wind Dir Wind Speed Gust Speed Precip Events Conditions
12:56 AM 41.0 °F - 39.9 °F 96% 30.12 in 10.0 mi Calm Calm - 0.00 in   Clear
1:44 AM 37.9 °F - 37.9 °F 100% 30.12 in 1.8 mi Calm Calm - 0.00 in Rain Light Rain
1:56 AM 39.0 °F - 37.9 °F 96% 30.12 in 5.0 mi Calm Calm - 0.00 in   Clear
2:23 AM 37.9 °F - 37.9 °F 100% 30.12 in 1.8 mi Calm Calm - N/A   Clear
2:32 AM 39.0 °F - 37.9 °F 96% 30.12 in 3.0 mi Calm Calm - N/A   Clear
2:56 AM 39.0 °F - 37.9 °F 96% 30.12 in 10.0 mi Calm Calm - N/A   Clear
3:56 AM 39.0 °F - 37.9 °F 96% 30.14 in 8.0 mi Calm Calm - 0.00 in   Unknown
4:26 AM 39.0 °F - 37.9 °F 96% 30.12 in 10.0 mi Calm Calm - 0.00 in   Scattered Clouds
4:35 AM 39.0 °F - 37.9 °F 96% 30.13 in 10.0 mi Calm Calm - 0.00 in   Mostly Cloudy
4:56 AM 37.9 °F - 37.9 °F 100% 30.12 in 3.0 mi Calm Calm - 0.00 in   Mostly Cloudy
4:58 AM 37.9 °F - 37.0 °F 97% 30.12 in 1.8 mi Calm Calm - N/A   Mostly Cloudy
5:10 AM 39.0 °F - 37.9 °F 96% 30.12 in 1.0 mi Calm Calm - N/A   Mist
5:19 AM 39.0 °F - 39.0 °F 100% 30.13 in 3.0 mi Calm Calm - N/A   Mostly Cloudy
5:29 AM 39.0 °F - 39.0 °F 100% 30.14 in 9.0 mi Calm Calm - N/A   Scattered Clouds
5:56 AM 39.9 °F - 39.0 °F 97% 30.14 in 10.0 mi Calm Calm - N/A   Mostly Cloudy
6:56 AM 41.0 °F 39.0 °F 39.9 °F 96% 30.16 in 10.0 mi North 3.5 mph - N/A   Mostly Cloudy
7:56 AM 45.0 °F - 45.0 °F 100% 30.18 in 10.0 mi Calm Calm - N/A   Mostly Cloudy
8:56 AM 50.0 °F - 48.0 °F 93% 30.20 in 10.0 mi Calm Calm - N/A   Mostly Cloudy
9:56 AM 53.1 °F - 50.0 °F 89% 30.21 in 10.0 mi Calm Calm - N/A   Mostly Cloudy
10:56 AM 55.9 °F - 48.0 °F 75% 30.21 in 10.0 mi SSE 5.8 mph - N/A   Overcast
11:56 AM 57.9 °F - 45.0 °F 62% 30.20 in 10.0 mi East 3.5 mph - N/A   Overcast
12:56 PM 57.9 °F - 45.0 °F 62% 30.17 in 10.0 mi East 3.5 mph - N/A   Overcast
1:56 PM 57.0 °F - 45.0 °F 64% 30.17 in 10.0 mi NNE 3.5 mph - N/A   Overcast
2:56 PM 57.0 °F - 45.0 °F 64% 30.17 in 10.0 mi Calm Calm - N/A   Overcast
3:56 PM 55.0 °F - 46.9 °F 74% 30.17 in 10.0 mi Calm Calm - N/A   Overcast
4:56 PM 53.1 °F - 48.0 °F 83% 30.19 in 10.0 mi Calm Calm - N/A   Overcast
5:56 PM 52.0 °F - 50.0 °F 93% 30.21 in 10.0 mi NNW 3.5 mph - N/A   Overcast
6:56 PM 52.0 °F - 50.0 °F 93% 30.22 in 10.0 mi Calm Calm - 0.00 in   Overcast
7:56 PM 53.1 °F - 51.1 °F 93% 30.25 in 10.0 mi Calm Calm - 0.00 in   Scattered Clouds
8:56 PM 52.0 °F - 51.1 °F 97% 30.25 in 10.0 mi Calm Calm - N/A   Overcast
9:56 PM 53.1 °F - 51.1 °F 93% 30.25 in 10.0 mi North 4.6 mph - N/A   Partly Cloudy
10:56 PM 53.1 °F - 50.0 °F 89% 30.27 in 10.0 mi NNW 6.9 mph - N/A   Mostly Cloudy
11:56 PM 52.0 °F - 48.9 °F 89% 30.28 in 10.0 mi NNW 5.8 mph - N/A   Mostly Cloudy